Date,TemperatureHighF,TemperatureAvgF,TemperatureLowF,DewpointHighF,DewpointAvgF,DewpointLowF,HumidityHigh,HumidityAvg,HumidityLow,PressureMaxIn,PressureMinIn,WindSpeedMaxMPH,WindSpeedAvgMPH,GustSpeedMaxMPH,PrecipitationSumIn
2013-3-1,51.0,46.5,41.0,33.0,30.4,29.0,64,54,46,30.13,30.08,12,6,15,0.00
2013-3-2,48.0,42.8,38.0,28.0,27.1,25.0,66,54,40,30.08,29.79,9,5,11,0.00
2013-3-3,39.0,30.8,21.0,28.0,18.1,9.0,91,64,29,30.09,29.56,40,24,45,0.00
2013-3-4,24.0,20.7,18.0,20.0,17.2,14.0,91,87,80,30.47,30.34,17,8,19,0.00
2013-3-5,25.0,19.5,6.0,19.0,15.3,4.0,89,83,75,30.37,30.24,7,4,9,0.00
2013-3-6,23.0,20.0,16.0,21.0,17.9,14.0,93,92,91,30.08,29.88,8,3,9,0.00
2013-3-7,32.0,23.9,18.0,28.0,21.2,15.0,91,89,85,30.18,30.08,8,4,9,0.00
2013-3-8,36.0,25.8,16.0,29.0,21.2,13.0,92,84,70,30.12,30.03,6,3,7,0.00
2013-3-9,41.0,31.7,25.0,25.0,22.0,18.0,85,67,51,30.26,30.09,12,6,14,0.00
2013-3-10,48.0,41.8,36.0,26.0,24.6,19.0,66,51,42,30.18,30.02,24,11,29,0.00
2013-3-11,28.0,26.0,23.0,23.0,21.6,20.0,91,83,73,30.38,30.07,18,9,20,0.00
2013-3-12,42.0,34.9,21.0,34.0,28.8,19.0,90,78,67,30.28,30.03,11,5,12,0.00
2013-3-13,52.0,47.0,43.0,33.0,31.2,30.0,67,55,45,30.02,29.97,11,7,14,0.00
2013-3-14,58.0,36.9,27.0,35.0,29.2,24.0,90,76,42,30.00,29.89,12,5,14,0.00
2013-3-15,55.0,41.8,28.0,29.0,27.1,23.0,81,58,34,30.06,29.82,27,14,32,0.00
2013-3-16,42.0,31.1,21.0,32.0,26.1,19.0,94,82,66,29.99,29.70,8,5,9,0.00
2013-3-17,33.0,19.5,13.0,25.0,13.0,6.0,85,75,66,30.08,29.55,27,17,33,0.00
2013-3-18,36.0,28.6,17.0,20.0,17.4,13.0,85,64,44,30.07,29.96,29,11,37,0.00
2013-3-19,41.0,26.6,12.0,15.0,11.4,9.0,89,60,30,30.31,30.26,7,5,9,0.00
2013-3-20,57.0,42.8,31.0,35.0,26.3,17.0,82,54,34,29.81,29.43,21,10,23,0.00
2013-3-21,42.0,35.0,27.0,32.0,17.0,10.0,86,51,27,29.90,29.47,34,17,39,0.00
2013-3-22,25.0,20.6,16.0,18.0,14.3,10.0,90,77,63,30.32,30.01,20,14,25,0.00
2013-3-23,27.0,19.5,10.0,15.0,10.2,4.0,79,67,48,30.47,30.40,7,5,8,0.00
2013-3-24,37.0,28.8,15.0,13.0,9.7,7.0,75,47,30,30.46,30.31,10,4,12,0.00
2013-3-25,45.0,36.4,20.0,16.0,13.7,8.0,62,40,28,30.24,30.08,8,4,12,0.00
2013-3-27,49.0,43.0,31.0,24.0,21.7,17.0,56,43,37,29.95,29.95,7,5,10,0.00
2013-3-28,55.0,55.0,55.0,33.0,33.0,33.0,43,43,43,29.96,29.96,8,8,9,0.00
2013-3-29,54.0,48.4,38.0,33.0,30.1,27.0,70,50,36,30.05,30.02,15,11,18,0.00
2013-3-30,59.0,52.5,39.0,27.0,24.8,23.0,62,36,25,30.10,30.01,11,8,15,0.00
2013-3-31,51.0,46.1,38.0,28.0,25.5,23.0,56,45,36,30.12,30.03,24,12,29,0.00